Location: Austin
(30.3000°N, 97.7500°W)
Time: 04:15:23
(UTC-06:00)

FengYun 1-2 T - Pass Details

Date: 05 February 2026
Orbit: 844 x 880 km, 98.8° (Epoch: 14 February)

Event Time Altitude Azimuth Distance (km) Brightness Sun altitude
Rises 04:58:55 0° 14° (NNE) 3,409 7.5 -30.6°
Reaches altitude 10° 05:01:18 10° 15° (NNE) 2,468 6.7 -30.1°
Maximum altitude 05:06:47 81° 103° (ESE) 856 4.1 -28.9°
Enters shadow 05:06:59 80° 138° (SE) 861 4.1 -28.8°
Exits shadow 05:13:54 - 192° (SSW) 3,119 7.1 -27.3°
Sets 05:14:35 0° 192° (SSW) 3,391 7.3 -27.2°
